Current weather by "City, St" or "zip code"  
 

Current Conditions: Cocoa - Patrick Air Force Base, FL

Fair


85.0 F

Last Updated on Oct 24 2020, 12:56 pm EDT
Humidity: 57%
Wind Speed: SE 10.4 mph
Barometer 29.95 in
Dewpoint: 67.6 F
Visibility: 10.00 mi
Precip: --
Heat Index: 88 F
Wind Chill: NA
Current conditions at:

Cocoa - Patrick Air Force Base, FL (KCOF)

Lat: 28.24219 Lon: 80.60799

Local Radar Image active severe weather and emergency alerts image image weather storm and storm spotter reports image weather observation monitoring service image
Local
Radar
Active
Alerts
Storm Reports Obs
Monitoring

Sign-up For Email & Text Message Weather Alert Notification Services



Advertise Here

Observation History for Cocoa - Patrick Air Force Base, FL


Time Wind
(mph)
Vis
(mi)
Weather Precip (in) Temperature (F) Relative
Humidity
Wind
Chill
(F)
Heat
Index
(F)
Pressure
Air Dwpt altimeter
(in)
sea level
(mb)
Rmks
12:56 pm EDT SE 10.4 10.00 Fair -- 85.0 67.6 57% NA 88 29.95 1014.7
11:56 am EDT SE 8.1 10.00 Fair -- 84.0 66.7 57% NA 87 29.96 1015.0
10:56 am EDT SE 11.5 10.00 Fair -- 83.0 66.7 59% NA 86 29.99 1016.0
9:56 am EDT SE 8.1 10.00 Fair -- 82.0 67.1 61% NA 85 29.99 1016.0
8:56 am EDT E 8.1 10.00 Fair -- 82.0 67.6 63% NA 85 29.97 1015.3
7:56 am EDT E 6.9 10.00 Fair -- 78.0 66.2 68% NA NA 29.97 1015.3
6:56 am EDT E 5.8 10.00 Fair -- 77.0 65.5 67% NA NA 29.97 1015.3
5:56 am EDT SE 6.9 10.00 Fair -- 78.0 65.1 64% NA NA 29.96 1015.0
4:56 am EDT E 8.1 10.00 Fair -- 78.0 67.3 69% NA NA 29.95 1014.7
3:56 am EDT E 10.4 10.00 Fair -- 78.0 65.8 66% NA NA 29.95 1014.7
2:56 am EDT E 12.7 10.00 Fair -- 79.0 66.7 67% NA NA 29.95 1014.7
1:56 am EDT E 12.7 10.00 Fair -- 79.0 66.4 66% NA NA 29.97 1015.3
12:56 am EDT E 12.7 10.00 Fair -- 79.0 65.7 64% NA NA 29.98 1015.7
11:56 pm EDT E 12.7 10.00 Fair -- 79.0 65.3 63% NA NA 29.98 1015.7
10:56 pm EDT E 13.8 10.00 Fair -- 79.0 66.0 64% NA NA 29.99 1016.0
9:56 pm EDT E 13.8 10.00 Fair -- 79.0 66.4 65% NA NA 29.99 1016.0
8:56 pm EDT E 15.0 10.00 Fair -- 80.0 66.4 64% NA 82 29.98 1015.7
7:56 pm EDT E 11.5 10.00 Fair -- 80.0 65.5 62% NA 82 29.99 1016.0
6:56 pm EDT E 13.8 10.00 Fair -- 80.0 65.5 62% NA 82 29.98 1015.7
5:56 pm EDT E 11.5 10.00 A Few Clouds -- 80.0 66.4 63% NA 82 29.97 1015.3
4:56 pm EDT E 13.8 10.00 Fair -- 80.0 67.3 65% NA 82 29.97 1015.3
3:56 pm EDT SE 5.8 10.00 Mostly Cloudy -- 80.0 67.6 66% NA 82 29.98 1015.7
2:56 pm EDT S 9.2 10.00 Fair -- 80.0 68.7 69% NA 83 29.98 1015.7
1:56 pm EDT S 8.1 10.00 Fair -- 79.0 69.4 73% NA NA 30.01 1016.7

Regional Weather Observation


Cocoa - Patrick Air Force Base, FL (KCOF)

Fair
85.0 F

Cocoa Beach, Cape Canaveral Air Force Station Skid Strip, FL (KXMR)

Partly Cloudy
83.0 F

Melbourne International Airport, FL (KMLB)

Partly Cloudy
82.0 F

Orlando / Sanford Airport, FL (KSFB)

Mostly Cloudy
83.0 F

Orlando International Airport, FL (KMCO)

Mostly Cloudy
83.0 F

Orlando Executive Airport, FL (KORL)

Mostly Cloudy
86.0 F